EUTELSAT KA-SAT 9A

Last updated on Sat Aug 22 2026 00:02:57 GMT+0000 (Coordinated Universal Time)

1 37258U 10069A 26233.34143777 .00000059 00000+0 00000+0 0 9995 2 37258 0.0717 343.0904 0005242 178.5488 299.9551 1.00269961 44663
UTC large
Height (km)
Speed (km/s)
/
Latitude / Longitude
Inclination (degrees)
Orbital Period (minutes)
Azimuth
Elevation
Range (km)
Doppler Factor

Next 0 passes for location: London (51.5072 / 0.1276)

No passes found over London.
EUTELSAT KA-SAT 9A